Tracking 19245 objects as of 18-Aug-2018
HD Live streaming from Space Station
objects crossing your sky now

LEMUR 2 FURIAUS

Track LEMUR 2 FURIAUS now!
10-day predictions
LEMUR 2 FURIAUS is classified as:


NORAD ID: 42840
Int'l Code: 2017-042R
Perigee: 590.8 km
Apogee: 609.2 km
Inclination: 97.6 °
Period: 96.5 minutes
Semi major axis: 6970 km
RCS: Unknown
Launch date: July 14, 2017
Source: United States (US)
Launch site: TYURATAM MISSILE AND SPACE COMPLEX (TTMTR)
aabbcc
Your satellite tracking list
Your tracking list is empty




NASA's NSSDC Master Catalog

Two Line Element Set (TLE):
1 42840U 17042R   18230.20193579  .00000439  00000-0  49071-4 0  9993
2 42840  97.5910 130.6218 0013195 358.0308   2.0857 14.91627764 59595
Source of the keplerian elements: AFSPC